Regional Weather Roundup
Issued by NWS Newport/Morehead, NC

Current Version | Previous Version | Text Only | Print | Product List | Glossary On
Versions: 1 2 3 4 5 6 7 8 9 10 11 12 13 14 15 16 17 18 19 20 21 22 23 24 25 26 27 28 29 30 31 32 33 34 35 36 37 38 39 40 41 42 43 44 45 46 47 48 49 50
010
ASUS42 KMHX 261825
RWRMHX
WEATHER ROUNDUP FOR EASTERN NORTH CAROLINA
NATIONAL WEATHER SERVICE NEWPORT/MOREHEAD CITY NC
200 PM EDT WED JUL 26 2017

NOTE: "FAIR" INDICATES FEW OR NO CLOUDS BELOW 12,000 FEET
WITH NO SIGNIFICANT WEATHER AND/OR OBSTRUCTIONS TO VISIBILITY

NCZ015>017-031-032-045>047-102-103-261900-
NORTH COAST

CITY           SKY/WX    TMP DP  RH WIND       PRES   REMARKS
EDENTON        PTSUNNY   83  70  65 CALM      30.17F
ELIZABETH CITY SUNNY     83  69  62 E9        30.17F
KITTY HAWK     CLEAR     79  65  61 NE7       30.17S
MANTEO         MOSUNNY   80  67  65 NE12      30.18S

$$

NCZ045>047-081-094-103-104-261900-
CENTRAL COAST

CITY           SKY/WX    TMP DP  RH WIND       PRES   REMARKS
FRISCO         SUNNY     84  66  54 NE9       30.15S

$$

NCZ095-097-098-100-101-261900-
SOUTHERN COAST

CITY           SKY/WX    TMP DP  RH WIND       PRES   REMARKS
BEAUFORT       CLOUDY    84  71  65 NE8       30.15R
CEDAR ISLAND   NOT AVBL
JACKSONVILLE   CLOUDY    86  69  56 NE12      30.14S
PINEY ISLAND   CLOUDY   N/A N/A N/A NE12      30.15S
WILMINGTON     CLOUDY    83  69  62 NE9       30.14S


$$

NCZ011>013-027>030-043-044-078>080-089-090>093-098-261900-
COASTAL PLAIN

CITY           SKY/WX    TMP DP  RH WIND       PRES   REMARKS
AHOSKIE          N/A     81  67  62 CALM      30.17F
CLINTON        MOSUNNY   87  69  54 CALM      30.14F
ELIZABETHTOWN  NOT AVBL
GOLDSBORO      MOSUNNY   89  62  40 NE3       30.14F
GREENVILLE     MOSUNNY   82  68  61 CALM      30.17F
HAVELOCK       PTSUNNY   84  68  58 NE14      30.16S
KENANSVILLE    MOSUNNY   88  66  48 NE3       30.14F
KINSTON        MOSUNNY   88  64  45 E6        30.16F
NEW BERN       MOSUNNY   85  68  56 E9        30.16F
RICHLANDS      PTSUNNY   86  71  60 NE8       30.15F
ROCKY MOUNT    PTSUNNY   85  70  60 VRB5      30.17F
WASHINGTON     MOSUNNY   83  68  60 NE8       30.16F
WHITEVILLE     PTSUNNY   86  73  65 E12       30.12F

$$

AMZ130-135-150-152-154-156-158-170-250-252-270-ANZ085-086-088-633-658-670-261900-
MARINE OBSERVATIONS

STATION/POSITION TIME  TEMP    WIND        PRES    WAVE   SWELL
                       AIR SEA DIR/SP/G            HT/PER HT/PER
                 (UTC) (F)     (DEG/KT/KT) (MB)    (FT/S) (FT/S)
CHESAPEAKE LIGHT NOT AVBL
64 E VA BEACH    1750   75 78   50/ 10/ 12 1022.0    3/ 7   2/ 7
DUCK             1800   76 76   50/  8/  9 1021.5
2 E DUCK         1800      75                N/A     3/ 6
OREGON INLET     1800   77 73   30/ 11/ 12 1021.7
13E OREGON INLT  1748      78                N/A     3/ 6   2/ 6
HATTERAS CG      1800   80 78   40/  9/ 13 1021.0
DIAMOND BUOY     1750   80 83   50/ 14/ 17 1020.4    4/ 5   2/ 7
CAPE LOOKOUT     1800   79      40/ 15/ 17 1020.7
BEAUFORT LAB     1800   83 79   60/  7/ 11 1020.3
30 SE NEW RVR IN 1808   80 84   60/ 14/ 19 1020.4
30 SE NEW RVR IN 1743      84                N/A     4/ 5
27 SE WRIGHTSVLE 1808   79 82  100/ 10/ 16 1020.2
5 SE WRIGHTSVLE  1708   80 81   60/ 14/ 21 1020.4
225 S CAPE HAT   1750   79 83   40/  4/  4 1019.7    3/ 6   3/ 6
41 SE CHARLESTON 1800   80 83  270/ 10/ 12 1019.0

$$




USA.gov is the U.S. government's official web portal to all federal, state and local government web resources and services.